Flag for U.S.A. Weather past 2 weeks in Toccoa, Georgia, U.S.A.

59 °F


Feels Like: 60 °F
Forecast: 57 / 60 °F
Wind: 3 mph from Southeast

Location: Clemson-Oconee County Airport

Current Time: Nov 30, 2015 at 10:27:02 AM

Latest Report: Nov 30, 2015 at 9:54 AM

Visibility: 2 mi

Pressure: 30.16 "Hg

Humidity: 90%

Dew point: 56 °F

Location of ToccoaLocation

Historic Weather in Toccoa — Graph


Toccoa temperature yesterday

Maximum temperature yesterday: 66 °F (at 12:54 PM)
Minimum temperature yesterday: 55 °F (at 5:54 AM)
Average temperature yesterday: 61 °F

Past Weeks' High & Low Weather Summary

High76 °F (Nov 19, 12:54 PM)94% (Nov 18, 10:54 PM)30.71 "Hg (Nov 18, 10:54 PM)
Low31 °F (Nov 23, 5:54 AM)18% (Nov 22, 4:54 PM)29.93 "Hg (Nov 22, 3:54 AM)
Average55 °F64%30.26 "Hg
* Reported Nov 15 9:54 AM — Nov 30 9:03 AM, Toccoa, Weather by CustomWeather, © 2015

Note: Actual official high and low records may vary slightly from our data, if they occured in-between our weather recording intervals... More about our weather records


Toccoa weather history for previous 24 hours

Time TempWeatherWind HumidityBarometerVisibility
9:03 AM
Mon, Nov 30
59 °FLight rain. Fog.No wind90%30.17 "Hg2 mi
7:54 AM59 °FLight rain. Fog.No wind90%30.14 "Hg4 mi
6:54 AM59 °FLight rain. Fog.3 mph90%30.13 "Hg6 mi
5:54 AM59 °FMostly cloudy.No wind90%30.11 "Hg7 mi
4:54 AM59 °FLow clouds.No wind90%30.10 "Hg7 mi
3:54 AM59 °FLight rain. Low clouds.No wind93%30.11 "Hg7 mi
2:54 AM59 °FLow clouds.No wind90%30.11 "Hg10 mi
1:54 AM60 °FLow clouds.No wind86%30.10 "Hg10 mi
12:54 AM60 °FMostly cloudy.No wind90%30.11 "Hg10 mi
11:54 PM
Sun, Nov 29
60 °FOvercast.No wind90%30.13 "Hg10 mi
10:54 PM60 °FMostly cloudy.5 mph90%30.12 "Hg10 mi
9:54 PM61 °FLight rain. Mostly cloudy.5 mph87%30.13 "Hg7 mi
8:54 PM61 °FRain. Fog.6 mph90%30.13 "Hg5 mi
7:54 PM62 °FLight rain. Overcast.3 mph90%30.14 "Hg10 mi
6:54 PM62 °FLight rain. Mostly cloudy.3 mph90%30.12 "Hg10 mi
5:54 PM62 °FMostly cloudy.3 mph90%30.12 "Hg10 mi
4:54 PM63 °FLight rain. Mostly cloudy.3 mph87%30.11 "Hg9 mi
3:54 PM63 °FLight rain. Overcast.No wind87%30.11 "Hg10 mi
2:54 PM65 °FLight rain. Overcast.3 mph78%30.11 "Hg10 mi
1:54 PM65 °FMore clouds than sun.3 mph78%30.13 "Hg10 mi
12:54 PM66 °FOvercast.3 mph70%30.14 "Hg10 mi
11:54 AM64 °FLight rain. Overcast.10 mph75%30.18 "Hg10 mi
10:54 AM65 °FOvercast.3 mph66%30.19 "Hg10 mi
Weather by CustomWeather, © 2015

See weather overviewHow to use our weather pages